Weather History for Lovelock, NV

Change the Weather History Date:

Sunday, September 8, 2013

  Actual Average Record
Temperature  
Mean Temperature 67 °F -  
Max Temperature 91 °F 87 °F 98 °F (2012)
Min Temperature 43 °F 46 °F 35 °F (1978)
Cooling Degree Days 2    
Growing Degree Days 17 (Base 50)    
Moisture  
Dew Point 25 °F    
Average Humidity 22    
Maximum Humidity 47    
Minimum Humidity 5    
Precipitation  
Precipitation 0.00 in - - ()
Sea Level Pressure  
Sea Level Pressure 29.90 in    
Wind  
Wind Speed 4 mph (SE)    
Max Wind Speed 13 mph    
Max Gust Speed 20 mph    
Visibility 10 miles    
Events      
Averages and records for this station are not official NWS values.
T = Trace of Precipitation, MM = Missing Value Source: NWS Daily Summary

Daily Weather History Graph

Daily Weather History Graph

Search for Another Location

Airport:

Trip Planner

Search our weather history database for the weather conditions in past years. The results will help you decide how hot, cold, wet, or windy it might be!

Date:

Astronomy

Sep. 08, 2013 Rise Set
Actual Time 6:28 AM PDT 7:13 PM PDT
Civil Twilight 6:01 AM PDT 7:41 PM PDT
Nautical Twilight 5:28 AM PDT 8:13 PM PDT
Astronomical Twilight 4:55 AM PDT 8:47 PM PDT
Moon 9:51 AM PDT (9/8) 8:52 PM PDT (9/8)
Length of Visible Light 13h 39m
Length of Day
12h 45m
Waxing Crescent, 12% of the Moon is Illuminated
Sep 8
Waxing Crescent
Sep 12
First Quarter
Sep 19
Full
Sep 26
Last Quarter
Oct 4
New

Hourly Weather History & Observations

Time (PDT) Temp. Dew Point Humidity Pressure Visibility Wind Dir Wind Speed Gust Speed Precip Events Conditions
12:53 AM 55.9 °F 24.1 °F 29% 29.92 in 10.0 mi Variable 3.5 mph - N/A   Clear
1:53 AM 54.0 °F 25.0 °F 33% 29.93 in 10.0 mi Calm Calm - N/A   Clear
2:53 AM 55.9 °F 25.0 °F 30% 29.92 in 10.0 mi NW 10.4 mph - N/A   Clear
3:53 AM 53.1 °F 24.1 °F 32% 29.92 in 10.0 mi ENE 3.5 mph - N/A   Clear
4:53 AM 48.9 °F 26.1 °F 41% 29.94 in 10.0 mi ENE 5.8 mph - N/A   Clear
5:53 AM 46.9 °F 26.1 °F 44% 29.95 in 10.0 mi Calm Calm - N/A   Clear
6:53 AM 43.0 °F 24.1 °F 47% 29.98 in 10.0 mi Calm Calm - N/A   Clear
7:53 AM 52.0 °F 25.0 °F 35% 29.99 in 10.0 mi SE 3.5 mph - N/A   Clear
8:53 AM 64.0 °F 30.0 °F 28% 29.97 in 10.0 mi Calm Calm - N/A   Clear
9:53 AM 73.0 °F 30.9 °F 21% 29.96 in 10.0 mi Calm Calm - N/A   Clear
10:53 AM 79.0 °F 30.9 °F 17% 29.91 in 10.0 mi South 4.6 mph - N/A   Clear
11:53 AM 84.9 °F 28.0 °F 13% 29.92 in 10.0 mi South 9.2 mph - N/A   Clear
12:53 PM 88.0 °F 26.1 °F 11% 29.90 in 10.0 mi Variable 3.5 mph - N/A   Clear
1:53 PM 89.1 °F 26.1 °F 10% 29.87 in 10.0 mi SSW 10.4 mph 17.3 mph N/A   Clear
2:53 PM 90.0 °F 26.1 °F 10% 29.84 in 10.0 mi South 8.1 mph 19.6 mph N/A   Clear
3:53 PM 91.0 °F 18.0 °F 7% 29.83 in 10.0 mi Variable 6.9 mph 19.6 mph N/A   Clear
4:53 PM 91.0 °F 10.9 °F 5% 29.83 in 10.0 mi WNW 11.5 mph - N/A   Clear
5:53 PM 89.1 °F 15.1 °F 6% 29.82 in 10.0 mi WNW 5.8 mph - N/A   Clear
6:53 PM 84.9 °F 24.1 °F 11% 29.84 in 10.0 mi NE 10.4 mph - N/A   Clear
7:53 PM 79.0 °F 24.1 °F 13% 29.85 in 10.0 mi Calm Calm - N/A   Clear
8:53 PM 69.1 °F 21.9 °F 17% 29.86 in 10.0 mi Variable 4.6 mph - N/A   Clear
9:53 PM 61.0 °F 25.0 °F 25% 29.87 in 10.0 mi Calm Calm - N/A   Clear
10:53 PM 70.0 °F 28.0 °F 21% 29.86 in 10.0 mi NNE 12.7 mph - N/A   Clear
11:53 PM 62.1 °F 28.0 °F 28% 29.87 in 10.0 mi East 3.5 mph - N/A   Clear